[Iaude] MPEC L05: 2024 KQ1 [a=2.18,e=0.52,i=1.6,H=23.9]

mpec at cfa.harvard.edu mpec at cfa.harvard.edu
Sat Jun 1 01:37:52 EDT 2024


M.P.E.C. 2024-L05                                  Issued 2024 June 1, 05:36 UT

     The Minor Planet Electronic Circulars contain information on unusual
         minor planets, routine data on comets and natural satellites,
         and occasional editorial announcements.  They are published
    on behalf of Division F of the International Astronomical Union by the
          Minor Planet Center, Smithsonian Astrophysical Observatory,
                          Cambridge, MA 02138, U.S.A.
			  
             Prepared using the Tamkin Foundation Computer Network

                              MPC at CFA.HARVARD.EDU
            URL https://www.minorplanetcenter.net/    ISSN 1523-6714

                                    2024 KQ1                                    


Observations:
     K24K01Q* C2024 05 30.33021214 47 20.280-19 05 42.85         21.57wXEL005F52
     K24K01Q  C2024 05 30.34133714 47 20.043-19 05 54.28         21.72wXEL005F52
     K24K01Q  C2024 05 30.36359714 47 19.576-19 06 16.58         21.60wXEL005F52
     K24K01Q  C2024 05 30.41240314 47 18.563-19 07 04.59         21.13GVEL005F51
     K24K01Q  C2024 05 30.41304514 47 18.556-19 07 05.19         21.18GVEL005F51
     K24K01Q 7C2024 05 30.94999814 47 21.546-19 16 26.30         19.8 GVEL005Z84
     K24K01Q 7C2024 05 30.95998914 47 21.372-19 16 36.96         19.7 GVEL005Z84
     K24K01Q 7C2024 05 30.97217014 47 21.203-19 16 49.19         20.2 GVEL005Z84
     K24K01Q KC2024 05 31.19152814 47 24.086-19 20 36.85         21.22GVEL005I52
     K24K01Q KC2024 05 31.19664014 47 24.036-19 20 42.36         21.23GVEL005I52
     K24K01Q KC2024 05 31.20174114 47 23.946-19 20 47.65         21.21GVEL005I52
     K24K01Q KC2024 05 31.20683214 47 23.874-19 20 53.23               VEL005I52
     K24K01Q  C2024 05 31.30457414 47 22.160-19 22 36.47         21.0 GVEL005H01
     K24K01Q  C2024 05 31.30839914 47 22.118-19 22 40.29         21.1 GVEL005H01
     K24K01Q  C2024 05 31.31834214 47 21.996-19 22 50.37         21.1 GVEL005H01
     K24K01Q  C2024 05 31.32788214 47 21.887-19 22 59.96         21.2 GVEL005H01
     K24K01Q !C2024 06 01.21078 14 47 32.14 -19 39 16.3          20.5 GVEL005673
     K24K01Q !C2024 06 01.21814 14 47 32.04 -19 39 25.6                VEL005673

Observer details:
673 Table Mountain Observatory, Wrightwood.  Observer J. Pittichova.  1.0-m
    f/15 reflector + CCD.
F51 Pan-STARRS 1, Haleakala.  Observers J. Herman, T. Lowe, P. Minguez, A.
    Schultz, I. Smith.  Measurers K. Chambers, T. de Boer, J. Fairlamb, H.
    Gao, M. Huber, C.-C. Lin, E. Magnier, Y. Ramanjooloo, R. Wainscoat, R.
    Weryk.  1.8-m Ritchey-Chretien + CCD.
F52 Pan-STARRS 2, Haleakala.  Observers J. Herman, T. Lowe, P. Minguez, A.
    Schultz, I. Smith.  Measurers K. Chambers, T. de Boer, J. Fairlamb, H.
    Gao, M. Huber, C.-C. Lin, E. Magnier, Y. Ramanjooloo, R. Wainscoat, R.
    Weryk.  1.8-m Ritchey-Chretien + CCD.
H01 Magdalena Ridge Observatory, Socorro.  Observers W. H. Ryan, E. V. Ryan.
    Measurer W. H. Ryan.  2.4-m f/8.9 Ritchey-Chretien + CCD.
I52 Steward Observatory, Mt. Lemmon Station.  Observer V. F. Carvajal.
    Measurers T. Beuden, V. F. Carvajal, D. Fay, J. B. Fazekas, D. C. Fuls, A.
    R. Gibbs, A. D. Grauer, H. Groeller, J. K. Hogan, R. A. Kowalski, S. M.
    Larson, G. J. Leonard, D. Rankin, R. L. Seaman, F. C. Shelly, K. W.
    Wierzchos.  1.0-m prime focus + CCD.
Z84 Calar Alto-Schmidt.  Observers F. Ocana, R. Kresken, M. Micheli, L.
    Conversi.  Measurers F. Ocana, M. Micheli.  0.8-m f/3 Schmidt + CCD.

Orbital elements:
2024 KQ1                                                 Earth MOID = 0.0379 AU
Epoch 2024 Mar. 31.0 TT = JDT 2460400.5                 MPC                     
M 329.08526              (2000.0)            P               Q                  
n   0.30545625     Peri.  236.94776     +0.33229568     +0.94292244             
a   2.1835847      Node    52.47573     -0.85590727     +0.31119561             
e   0.5208746      Incl.    1.57779     -0.39623520     +0.11855199             
P   3.23           H   23.99          G   0.15           U   9                  
Residuals in seconds of arc
240530 F52  0.1-  0.1+    240530 Z84  0.1-  0.2-    240531 H01  0.1-  0.0
240530 F52  0.2-  0.1-    240530 Z84  0.2+  0.0     240531 H01  0.0   0.0
240530 F52  0.1-  0.0     240531 I52  0.3-  0.0     240531 H01  0.0   0.0
240530 F51  0.0   0.0     240531 I52  0.1+  0.1+    240531 H01  0.0   0.0
240530 F51  0.1+  0.0     240531 I52  0.0   0.3+    240601 673  0.2-  0.2+
240530 Z84  0.2+  0.2+    240531 I52  0.1+  0.2+    240601 673  0.3-  0.6-

Ephemeris:
2024 KQ1                 a,e,i = 2.18, 0.52, 2                   q = 1.0462
Date    TT    R. A. (2000) Decl.     Delta      r    Elong.  Phase     V
2024 05 02    14 55 15.0 -15 32 17   0.3121  1.3192   175.7     3.3    22.4
...
2024 05 17    14 50 10.8 -16 38 41   0.2183  1.2261   168.8     9.2    21.7
...
2024 05 25    14 47 47.9 -17 50 41   0.1770  1.1815   160.9    16.3    21.5
...
2024 05 31    14 47 22.1 -19 16 29   0.1491  1.1511   155.4    21.5    21.2
2024 06 01    14 47 29.3 -19 34 29   0.1447  1.1463   154.5    22.4    21.2
2024 06 02    14 47 40.6 -19 53 47   0.1403  1.1416   153.6    23.2    21.1
...
2024 06 08    14 50 48.9 -22 23 14   0.1152  1.1154   149.1    27.9    20.8
...
2024 06 16    15 04 31.8 -28 03 54   0.08439 1.0862   145.2    32.3    20.2
...
2024 07 01    17 57 28.8 -53 58 06   0.04147 1.0521   148.1    30.7    18.5

A. U. Tomatic                (C) Copyright 2024 MPC           M.P.E.C. 2024-L05





More information about the Iaude mailing list